This demonstration page uses our WeatherBlox Daily Observations layout. Learn more.

Left ArrowRight Arrow

47.50024, -111.30081

Hourly Observations for May 25, 2022

Temp ( °F °C ) Dew Point ( °F °C ) Humidity (%) Winds ( mph kmh ) Pressure ( in mb ) Visibility ( mi km ) Precip ( " mm )
12:53 am 00:53 Clear 43 6.1 31 -0.6 63 63 SSW 9 15 29.94 1014 10 16 0.00 0.00
1:53 am 01:53 Clear 44 6.7 31 -0.6 60 60 SSW 6 9 29.93 1014 10 16 0.00 0.00
2:53 am 02:53 Clear 46 7.8 32 0 58 58 SSW 13 20 29.91 1013 10 16 0.00 0.00
3:53 am 03:53 Mostly Cloudy 43 6.1 32 0 65 65 SSW 10 17 29.93 1013 10 16 0.00 0.00
4:53 am 04:53 Cloudy 46 7.8 32 0 58 58 SSW 10 17 29.91 1013 10 16 0.00 0.00
5:53 am 05:53 Cloudy 50 10 33 0.6 52 52 SW 14 22 29.89 1012 10 16 0.00 0.00
6:53 am 06:53 Cloudy 52 11.1 34 1.1 50 50 SW 13 20 29.88 1012 10 16 0.00 0.00
7:53 am 07:53 Cloudy 54 12.2 34 1.1 47 47 SW 14 22 29.89 1012 10 16 0.00 0.00
8:53 am 08:53 Cloudy 55 12.8 34 1.1 45 45 SW 15 24 29.91 1013 10 16 0.00 0.00
9:53 am 09:53 Sunny 59 15 36 2.2 42 42 SW 22 35 29.91 1013 10 16 0.00 0.00
10:53 am 10:53 Partly Cloudy 61 16.1 37 2.8 41 41 WSW 25 41 29.90 1013 10 16 0.00 0.00
11:53 am 11:53 Mostly Cloudy 62 16.7 38 3.3 41 41 WSW 17 28 29.91 1013 10 16 0.00 0.00
12:53 pm 12:53 Cloudy 62 16.7 38 3.3 41 41 WSW 22 35 29.90 1013 10 16 0.00 0.00
1:53 pm 13:53 Mostly Cloudy 67 19.4 40 4.4 37 37 SW 25 41 29.87 1011 10 16 0.00 0.00
2:53 pm 14:53 Mostly Sunny 67 19.4 39 3.9 36 36 WSW 25 41 29.85 1011 10 16 0.00 0.00
3:53 pm 15:53 Partly Cloudy 65 18.3 40 4.4 40 40 WSW 23 37 29.87 1012 10 16 0.00 0.00
4:53 pm 16:53 Partly Cloudy 66 18.9 40 4.4 39 39 W 25 41 29.86 1011 10 16 0.00 0.00
5:53 pm 17:53 Partly Cloudy 65 18.3 39 3.9 39 39 W 26 43 29.85 1011 10 16 0.00 0.00
6:53 pm 18:53 Mostly Cloudy 64 17.8 40 4.4 41 41 WSW 23 37 29.85 1011 10 16 0.00 0.00
7:53 pm 19:53 Partly Cloudy 64 17.8 39 3.9 40 40 W 22 35 29.85 1011 10 16 0.00 0.00
8:53 pm 20:53 Mostly Sunny 60 15.6 40 4.4 47 47 W 10 17 29.88 1012 10 16 0.00 0.00
9:53 pm 21:53 Clear 54 12.2 39 3.9 57 57 WSW 6 9 29.91 1013 10 16 0.00 0.00
10:53 pm 22:53 Clear 50 10 38 3.3 63 63 WNW 9 15 29.92 1013 10 16 0.00 0.00
11:53 pm 23:53 Clear 51 10.6 39 3.9 64 64 NW 8 13 29.92 1013 10 16 0.00 0.00

Powered by AerisWeather